| time (UTC) | temp F | wind direction | speed MPH | gust MPH | rain 1hr in | rain 24hr in | rain mn in | humidity % | barometer mb |
| 20260508214532 | 75 | 221 | 10.0 | 18.0 | 0.00 | 0.00 | 0.00 | 47 | 1012.7 |
| 20260508213029 | 75 | 212 | 11.0 | 15.0 | 0.00 | 0.00 | 0.00 | 47 | 1012.9 |
| 20260508211528 | 75 | 212 | 10.0 | 16.0 | 0.00 | 0.00 | 0.00 | 49 | 1013.1 |
| 20260508210024 | 75 | 188 | 11.0 | 19.0 | 0.00 | 0.00 | 0.00 | 49 | 1013.3 |
| 20260508204522 | 74 | 161 | 9.0 | 18.0 | 0.00 | 0.00 | 0.00 | 50 | 1013.2 |
| 20260508203021 | 74 | 213 | 9.0 | 16.0 | 0.00 | 0.00 | 0.00 | 51 | 1013.3 |
| 20260508201524 | 74 | 211 | 12.0 | 18.0 | 0.00 | 0.00 | 0.00 | 52 | 1013.7 |
| 20260508200021 | 74 | 174 | 11.0 | 15.0 | 0.00 | 0.00 | 0.00 | 55 | 1013.8 |
| 20260508194515 | 73 | 181 | 11.0 | 20.0 | 0.00 | 0.00 | 0.00 | 54 | 1014.1 |
| 20260508193017 | 73 | 205 | 12.0 | 19.0 | 0.00 | 0.00 | 0.00 | 53 | 1014.2 |
| 20260508191515 | 72 | 184 | 9.0 | 19.0 | 0.00 | 0.00 | 0.00 | 57 | 1014.4 |
| 20260508190008 | 72 | 200 | 11.0 | 25.0 | 0.00 | 0.00 | 0.00 | 56 | 1014.8 |
| 20260508184507 | 72 | 194 | 10.0 | 20.0 | 0.00 | 0.00 | 0.00 | 58 | 1015.3 |
| 20260508183001 | 72 | 235 | 13.0 | 22.0 | 0.00 | 0.00 | 0.00 | 57 | 1015.6 |
| 20260508181632 | 72 | 186 | 11.0 | 18.0 | 0.00 | 0.00 | 0.00 | 60 | 1015.8 |
| 20260508174601 | 70 | 214 | 11.0 | 19.0 | 0.00 | 0.00 | 0.00 | 61 | 1016.3 |
| 20260508173051 | 70 | 198 | 13.0 | 20.0 | 0.00 | 0.00 | 0.00 | 63 | 1016.5 |
| 20260508171549 | 70 | 210 | 11.0 | 18.0 | 0.00 | 0.00 | 0.00 | 63 | 1016.8 |
| 20260508170045 | 69 | 205 | 13.0 | 22.0 | 0.00 | 0.00 | 0.00 | 61 | 1017.0 |
| 20260508164543 | 69 | 180 | 11.0 | 20.0 | 0.00 | 0.00 | 0.00 | 63 | 1017.2 |
| 20260508163042 | 68 | 186 | 12.0 | 21.0 | 0.00 | 0.00 | 0.00 | 64 | 1017.4 |
| 20260508161538 | 68 | 196 | 16.0 | 22.0 | 0.00 | 0.00 | 0.00 | 63 | 1017.5 |
| 20260508160034 | 68 | 209 | 10.0 | 16.0 | 0.00 | 0.00 | 0.00 | 68 | 1017.6 |
| 20260508154532 | 67 | 170 | 10.0 | 15.0 | 0.00 | 0.00 | 0.00 | 68 | 1017.7 |
| 20260508153040 | 66 | 194 | 12.0 | 17.0 | 0.00 | 0.00 | 0.00 | 69 | 1018.0 |
| 20260508151529 | 65 | 188 | 10.0 | 17.0 | 0.00 | 0.00 | 0.00 | 71 | 1018.2 |
| 20260508150022 | 64 | 203 | 9.0 | 15.0 | 0.00 | 0.00 | 0.00 | 73 | 1018.4 |
| 20260508144519 | 63 | 179 | 7.0 | 15.0 | 0.00 | 0.00 | 0.00 | 76 | 1018.7 |
| 20260508143022 | 62 | 190 | 8.0 | 13.0 | 0.00 | 0.00 | 0.00 | 77 | 1018.7 |
| 20260508141513 | 61 | 190 | 9.0 | 14.0 | 0.00 | 0.00 | 0.00 | 77 | 1018.8 |
| 20260508140010 | 60 | 188 | 8.0 | 14.0 | 0.00 | 0.00 | 0.00 | 79 | 1019.1 |
| 20260508134507 | 59 | 188 | 8.0 | 14.0 | 0.00 | 0.00 | 0.00 | 80 | 1019.0 |
| 20260508133007 | 58 | 180 | 7.0 | 10.0 | 0.00 | 0.00 | 0.00 | 81 | 1019.2 |
| 20260508131502 | 57 | 178 | 7.0 | 10.0 | 0.00 | 0.00 | 0.00 | 84 | 1019.2 |
| 20260508130058 | 56 | 185 | 7.0 | 10.0 | 0.00 | 0.00 | 0.00 | 85 | 1019.1 |
| 20260508124553 | 55 | 178 | 6.0 | 9.0 | 0.00 | 0.00 | 0.00 | 86 | 1019.1 |
| 20260508123056 | 54 | 197 | 7.0 | 10.0 | 0.00 | 0.00 | 0.00 | 87 | 1019.1 |
| 20260508121554 | 53 | 212 | 3.0 | 8.0 | 0.00 | 0.00 | 0.00 | 89 | 1019.0 |
| 20260508120052 | 52 | 209 | 4.0 | 8.0 | 0.00 | 0.00 | 0.00 | 88 | 1018.8 |
| 20260508114548 | 51 | 186 | 4.0 | 6.0 | 0.00 | 0.00 | 0.00 | 88 | 1018.6 |
| 20260508113050 | 50 | 197 | 4.0 | 6.0 | 0.00 | 0.00 | 0.00 | 89 | 1018.6 |
| 20260508111548 | 50 | 173 | 3.0 | 4.0 | 0.00 | 0.00 | 0.00 | 88 | 1018.1 |
| 20260508110047 | 50 | 171 | 1.0 | 4.0 | 0.00 | 0.00 | 0.00 | 88 | 1017.7 |
| 20260508104541 | 51 | 167 | 2.0 | 5.0 | 0.00 | 0.00 | 0.00 | 86 | 1017.7 |
| 20260508103041 | 51 | 167 | 3.0 | 4.0 | 0.00 | 0.00 | 0.00 | 85 | 1017.7 |
| 20260508101539 | 51 | 177 | 2.0 | 5.0 | 0.00 | 0.00 | 0.00 | 85 | 1017.8 |
| 20260508100037 | 51 | 182 | 2.0 | 4.0 | 0.00 | 0.00 | 0.00 | 86 | 1017.8 |
| 20260508094538 | 51 | 198 | 3.0 | 5.0 | 0.00 | 0.00 | 0.00 | 86 | 1018.0 |
| 20260508093035 | 51 | 201 | 3.0 | 5.0 | 0.00 | 0.00 | 0.00 | 86 | 1017.9 |
| 20260508091533 | 51 | 197 | 3.0 | 5.0 | 0.00 | 0.00 | 0.00 | 86 | 1018.0 |
| 20260508090034 | 52 | 175 | 1.0 | 3.0 | 0.00 | 0.00 | 0.00 | 85 | 1017.9 |
| 20260508084530 | 52 | 175 | 2.0 | 4.0 | 0.00 | 0.00 | 0.00 | 84 | 1018.1 |
| 20260508083029 | 52 | 175 | 3.0 | 5.0 | 0.00 | 0.00 | 0.00 | 84 | 1018.1 |
| 20260508081533 | 52 | 171 | 0.0 | 3.0 | 0.00 | 0.00 | 0.00 | 85 | 1018.2 |
| 20260508080026 | 52 | 171 | 1.0 | 4.0 | 0.00 | 0.00 | 0.00 | 85 | 1018.5 |
| 20260508074524 | 53 | 192 | 1.0 | 5.0 | 0.00 | 0.00 | 0.00 | 83 | 1018.5 |
| 20260508073024 | 53 | 187 | 3.0 | 5.0 | 0.00 | 0.00 | 0.00 | 84 | 1018.6 |
| 20260508071528 | 53 | 181 | 3.0 | 4.0 | 0.00 | 0.00 | 0.00 | 84 | 1018.8 |
| 20260508070020 | 53 | 180 | 3.0 | 4.0 | 0.00 | 0.00 | 0.00 | 85 | 1019.0 |
| 20260508064521 | 53 | 180 | 2.0 | 4.0 | 0.00 | 0.00 | 0.00 | 85 | 1018.9 |
| 20260508063019 | 53 | 174 | 4.0 | 5.0 | 0.00 | 0.00 | 0.00 | 84 | 1019.0 |
| 20260508061521 | 54 | 172 | 2.0 | 4.0 | 0.00 | 0.00 | 0.00 | 82 | 1019.0 |
| 20260508060015 | 54 | 172 | 1.0 | 3.0 | 0.00 | 0.00 | 0.00 | 82 | 1019.1 |
| 20260508054516 | 54 | 172 | 1.0 | 3.0 | 0.00 | 0.00 | 0.00 | 82 | 1018.9 |
| 20260508053011 | 54 | 169 | 1.0 | 3.0 | 0.00 | 0.00 | 0.00 | 82 | 1019.0 |
| 20260508051517 | 54 | 168 | 1.0 | 3.0 | 0.00 | 0.00 | 0.00 | 83 | 1019.1 |
| 20260508050010 | 54 | 173 | 1.0 | 4.0 | 0.00 | 0.00 | 0.00 | 82 | 1018.9 |
| 20260508044505 | 55 | 167 | 1.0 | 3.0 | 0.00 | 0.00 | 0.00 | 81 | 1019.0 |
| 20260508043004 | 55 | 155 | 1.0 | 3.0 | 0.00 | 0.00 | 0.00 | 80 | 1019.1 |
| 20260508041503 | 55 | 150 | 3.0 | 5.0 | 0.00 | 0.00 | 0.00 | 80 | 1018.9 |
| 20260508040008 | 55 | 156 | 2.0 | 3.0 | 0.00 | 0.00 | 0.00 | 80 | 1018.8 |
| 20260508034502 | 56 | 162 | 3.0 | 5.0 | 0.00 | 0.00 | 0.00 | 80 | 1019.0 |
| 20260508033004 | 56 | 148 | 2.0 | 4.0 | 0.00 | 0.00 | 0.00 | 80 | 1019.2 |
| 20260508031501 | 56 | 138 | 1.0 | 3.0 | 0.00 | 0.00 | 0.00 | 79 | 1019.1 |
| 20260508030001 | 57 | 137 | 3.0 | 5.0 | 0.00 | 0.00 | 0.00 | 79 | 1018.9 |
| 20260508024500 | 57 | 141 | 2.0 | 5.0 | 0.00 | 0.00 | 0.00 | 78 | 1018.9 |
| 20260508023100 | 58 | 140 | 3.0 | 5.0 | 0.00 | 0.00 | 0.00 | 77 | 1018.7 |
| 20260508021559 | 58 | 138 | 3.0 | 5.0 | 0.00 | 0.00 | 0.00 | 77 | 1018.5 |
| 20260508020059 | 59 | 137 | 2.0 | 4.0 | 0.00 | 0.00 | 0.00 | 75 | 1018.4 |
| 20260508014557 | 59 | 133 | 3.0 | 5.0 | 0.00 | 0.00 | 0.00 | 72 | 1018.1 |
| 20260508013056 | 60 | 161 | 2.0 | 3.0 | 0.00 | 0.00 | 0.00 | 71 | 1018.2 |
| 20260508011605 | 60 | 163 | 3.0 | 5.0 | 0.00 | 0.00 | 0.00 | 69 | 1018.2 |
| 20260508010054 | 62 | 155 | 2.0 | 3.0 | 0.00 | 0.00 | 0.00 | 65 | 1018.2 |
| 20260508004555 | 63 | 142 | 3.0 | 4.0 | 0.00 | 0.00 | 0.00 | 60 | 1018.1 |
| 20260508003050 | 64 | 140 | 2.0 | 4.0 | 0.00 | 0.00 | 0.00 | 57 | 1018.0 |
| 20260508001550 | 65 | 144 | 1.0 | 4.0 | 0.00 | 0.00 | 0.00 | 52 | 1018.0 |
| 20260508000049 | 65 | 136 | 2.0 | 4.0 | 0.00 | 0.00 | 0.00 | 52 | 1018.0 |
| 20260507234558 | 65 | 111 | 4.0 | 9.0 | 0.00 | 0.00 | 0.00 | 50 | 1017.9 |
| 20260507233047 | 66 | 148 | 2.0 | 5.0 | 0.00 | 0.00 | 0.00 | 50 | 1017.9 |
| 20260507231551 | 66 | 121 | 2.0 | 7.0 | 0.00 | 0.00 | 0.00 | 49 | 1017.9 |
| 20260507230050 | 67 | 134 | 3.0 | 7.0 | 0.00 | 0.00 | 0.00 | 49 | 1017.9 |
| 20260507224545 | 67 | 57 | 2.0 | 5.0 | 0.00 | 0.00 | 0.00 | 49 | 1018.2 |
| 20260507223045 | 67 | 66 | 0.0 | 4.0 | 0.00 | 0.00 | 0.00 | 48 | 1018.2 |
| 20260507221541 | 67 | 156 | 1.0 | 3.0 | 0.00 | 0.00 | 0.00 | 50 | 1018.2 |
| 20260507220039 | 66 | 186 | 5.0 | 9.0 | 0.00 | 0.00 | 0.00 | 47 | 1018.3 |